Wetterdaten: Woche 28.12.20 - 03.01.21 (KW53)
Datum Zeit Temp. A. Pool Temp. Temp. 5cm Feuchte A. Luftdruck Regen Wind Richtung Sonnenschein ET UV Solar Taupunkt Windchill Windben Empfang
28.12.2020 00:00 -4,1 C 3,9 C -4,5 C 94 % 987,1 hPa 0,0 l/m 3,7 km/h (1 Bft) SW 0,00 h 0,000 mm 0,0 UV-I 5 W/m -4,9 C -4,2 C 5,5 km/h (1 Bft) 98,43 %
28.12.2020 01:00 -3,7 C 3,9 C -4,3 C 94 % 986,6 hPa 0,0 l/m 5,4 km/h (1 Bft) S-SW 0,00 h 0,000 mm 0,0 UV-I 5 W/m -4,5 C -4,1 C 8,1 km/h (2 Bft) 95,75 %
28.12.2020 02:00 -3,5 C 3,9 C -4,0 C 94 % 986,4 hPa 0,0 l/m 4,2 km/h (1 Bft) S-SW 0,00 h 0,000 mm 0,0 UV-I 5 W/m -4,3 C -3,5 C 6,2 km/h (2 Bft) 96,78 %
28.12.2020 03:00 -2,9 C 3,9 C -3,2 C 93 % 986,1 hPa 0,0 l/m 5,9 km/h (2 Bft) SW 0,00 h 0,000 mm 0,0 UV-I 5 W/m -3,9 C -3,2 C 8,4 km/h (2 Bft) 96,78 %
28.12.2020 04:00 -2,5 C 3,9 C -2,8 C 93 % 986,1 hPa 0,0 l/m 7,1 km/h (2 Bft) SW 0,00 h 0,000 mm 0,0 UV-I 5 W/m -3,5 C -3,5 C 10,1 km/h (2 Bft) 97,15 %
28.12.2020 05:00 -2,3 C 3,9 C -2,9 C 93 % 986,1 hPa 0,0 l/m 6,3 km/h (2 Bft) S-SW 0,00 h 0,000 mm 0,0 UV-I 5 W/m -3,3 C -2,9 C 9,9 km/h (2 Bft) 95,47 %
28.12.2020 06:00 -2,1 C 3,9 C -2,2 C 93 % 985,8 hPa 0,0 l/m 2,8 km/h (1 Bft) O 0,00 h 0,000 mm 0,0 UV-I 5 W/m -3,0 C -2,4 C 4,4 km/h (1 Bft) 96,60 %
28.12.2020 07:00 -1,5 C 3,9 C -2,1 C 92 % 986,1 hPa 0,0 l/m 5,5 km/h (1 Bft) O 0,00 h 0,000 mm 0,0 UV-I 6 W/m -2,6 C -2,0 C 8,2 km/h (2 Bft) 98,46 %
28.12.2020 08:00 -0,5 C 3,9 C -1,3 C 90 % 985,7 hPa 0,0 l/m 12,2 km/h (2 Bft) O-NO 0,00 h 0,000 mm 0,0 UV-I 14 W/m -1,9 C -5,6 C 17,0 km/h (3 Bft) 96,32 %
28.12.2020 09:00 0,2 C 3,9 C -0,3 C 87 % 985,4 hPa 0,0 l/m 10,3 km/h (2 Bft) O 0,00 h 0,025 mm 0,0 UV-I 51 W/m -1,8 C -3,4 C 15,1 km/h (3 Bft) 95,50 %
28.12.2020 10:00 0,6 C 3,9 C 0,6 C 85 % 985,0 hPa 0,0 l/m 12,9 km/h (3 Bft) O-NO 0,00 h 0,026 mm 0,0 UV-I 83 W/m -1,6 C -4,9 C 17,8 km/h (3 Bft) 95,92 %
28.12.2020 11:00 0,9 C 3,9 C 1,4 C 84 % 984,2 hPa 0,0 l/m 15,0 km/h (3 Bft) O-NO 0,03 h 0,051 mm 0,0 UV-I 128 W/m -1,5 C -5,9 C 20,0 km/h (4 Bft) 98,58 %
28.12.2020 12:00 1,7 C 3,9 C 2,5 C 81 % 982,7 hPa 0,0 l/m 15,9 km/h (3 Bft) O-NO 0,77 h 0,050 mm 0,2 UV-I 236 W/m -1,2 C -5,3 C 21,2 km/h (4 Bft) 97,22 %
28.12.2020 13:00 2,6 C 3,9 C 3,6 C 79 % 981,8 hPa 0,0 l/m 13,5 km/h (3 Bft) O-NO 0,87 h 0,102 mm 0,0 UV-I 210 W/m -0,6 C -2,7 C 17,8 km/h (3 Bft) 97,87 %
28.12.2020 14:00 3,4 C 3,9 C 3,2 C 77 % 980,9 hPa 0,0 l/m 13,9 km/h (3 Bft) O-NO 0,80 h 0,102 mm 0,0 UV-I 140 W/m -0,2 C -2,2 C 19,7 km/h (3 Bft) 97,15 %
28.12.2020 15:00 3,5 C 3,9 C 2,1 C 76 % 980,0 hPa 0,0 l/m 18,8 km/h (3 Bft) O-NO 0,07 h 0,076 mm 0,0 UV-I 38 W/m -0,3 C -4,5 C 25,7 km/h (4 Bft) 97,44 %
28.12.2020 16:00 3,4 C 3,9 C 1,7 C 76 % 979,9 hPa 0,0 l/m 15,7 km/h (3 Bft) O-NO 0,10 h 0,051 mm 0,0 UV-I 8 W/m -0,3 C -3,0 C 21,7 km/h (4 Bft) 95,67 %
28.12.2020 17:00 3,4 C 3,9 C 1,5 C 78 % 980,3 hPa 0,0 l/m 7,2 km/h (2 Bft) S 0,00 h 0,025 mm 0,0 UV-I 5 W/m -0,1 C 1,9 C 11,9 km/h (2 Bft) 96,31 %
28.12.2020 18:00 2,2 C 3,9 C 1,1 C 84 % 982,1 hPa 0,0 l/m 12,7 km/h (3 Bft) SW 0,00 h 0,025 mm 0,0 UV-I 5 W/m -0,3 C -2,7 C 19,7 km/h (3 Bft) 96,58 %
28.12.2020 19:00 2,4 C 3,9 C 1,4 C 85 % 983,3 hPa 0,0 l/m 18,6 km/h (3 Bft) W-SW 0,00 h 0,026 mm 0,0 UV-I 5 W/m 0,1 C -5,9 C 28,0 km/h (4 Bft) 97,82 %
28.12.2020 20:00 1,7 C 3,9 C 0,9 C 92 % 984,5 hPa 0,2 l/m 16,5 km/h (3 Bft) W 0,00 h 0,025 mm 0,0 UV-I 5 W/m 0,6 C -5,6 C 25,6 km/h (4 Bft) 96,62 %
28.12.2020 21:00 1,3 C 3,9 C 0,7 C 95 % 985,6 hPa 0,2 l/m 12,7 km/h (3 Bft) W-SW 0,00 h 0,000 mm 0,0 UV-I 5 W/m 0,5 C -3,9 C 19,7 km/h (3 Bft) 97,78 %
28.12.2020 22:00 1,7 C 3,9 C 0,7 C 93 % 985,5 hPa 0,0 l/m 12,5 km/h (3 Bft) SW 0,00 h 0,000 mm 0,0 UV-I 5 W/m 0,7 C -3,4 C 19,1 km/h (3 Bft) 95,12 %
28.12.2020 23:00 1,9 C 3,9 C 0,3 C 90 % 985,1 hPa 0,0 l/m 10,0 km/h (2 Bft) SW 0,00 h 0,000 mm 0,0 UV-I 5 W/m 0,5 C -1,3 C 15,0 km/h (3 Bft) 98,06 %
29.12.2020 00:00 1,3 C 3,9 C -0,8 C 91 % 985,1 hPa 0,0 l/m 3,4 km/h (1 Bft) SW 0,00 h 0,000 mm 0,0 UV-I 5 W/m -0,1 C 1,3 C 5,5 km/h (1 Bft) 96,85 %
29.12.2020 01:00 -0,2 C 3,9 C -1,4 C 94 % 986,3 hPa 0,0 l/m 2,9 km/h (1 Bft) SO 0,00 h 0,000 mm 0,0 UV-I 5 W/m -1,0 C -0,3 C 4,6 km/h (1 Bft) 96,81 %
29.12.2020 02:00 -0,9 C 3,9 C -3,6 C 96 % 987,2 hPa 0,0 l/m 2,2 km/h (1 Bft) S-SO 0,00 h 0,000 mm 0,0 UV-I 5 W/m -1,5 C -0,9 C 3,7 km/h (1 Bft) 95,94 %
29.12.2020 03:00 -0,8 C 3,9 C -3,6 C 96 % 987,2 hPa 0,0 l/m 4,4 km/h (1 Bft) O 0,00 h 0,000 mm 0,0 UV-I 5 W/m -1,4 C -0,9 C 6,8 km/h (2 Bft) 97,11 %
29.12.2020 04:00 -0,7 C 3,9 C -1,9 C 96 % 988,1 hPa 0,0 l/m 3,6 km/h (1 Bft) O-SO 0,00 h 0,000 mm 0,0 UV-I 5 W/m -1,3 C -1,0 C 5,4 km/h (1 Bft) 98,58 %
29.12.2020 05:00 -0,0 C 3,9 C -2,0 C 94 % 988,6 hPa 0,0 l/m 5,2 km/h (1 Bft) O-SO 0,00 h 0,000 mm 0,0 UV-I 5 W/m -0,8 C -0,5 C 8,2 km/h (2 Bft) 96,36 %
29.12.2020 06:00 -1,1 C 3,9 C -3,5 C 95 % 989,5 hPa 0,0 l/m 4,3 km/h (1 Bft) N-NO 0,00 h 0,000 mm 0,0 UV-I 5 W/m -1,8 C -1,2 C 6,3 km/h (2 Bft) 96,50 %
29.12.2020 07:00 -1,8 C 3,9 C -5,2 C 96 % 990,5 hPa 0,0 l/m 3,7 km/h (1 Bft) O-NO 0,00 h 0,000 mm 0,0 UV-I 7 W/m -2,3 C -1,8 C 5,1 km/h (1 Bft) 96,81 %
29.12.2020 08:00 -2,2 C 3,9 C -4,7 C 96 % 991,6 hPa 0,0 l/m 2,1 km/h (1 Bft) O-SO 0,73 h 0,000 mm 0,0 UV-I 58 W/m -2,7 C -2,2 C 3,5 km/h (1 Bft) 97,82 %
29.12.2020 09:00 -1,0 C 3,9 C -3,0 C 96 % 992,7 hPa 0,2 l/m 2,2 km/h (1 Bft) N 1,00 h 0,025 mm 0,0 UV-I 146 W/m -1,6 C -1,0 C 3,5 km/h (1 Bft) 97,00 %
29.12.2020 10:00 0,7 C 3,9 C -1,7 C 95 % 993,7 hPa 0,0 l/m 0,5 km/h (0 Bft) NW 1,00 h 0,051 mm 0,0 UV-I 218 W/m -0,1 C 0,7 C 0,9 km/h (0 Bft) 97,17 %
29.12.2020 11:00 2,1 C 3,9 C 0,3 C 91 % 994,3 hPa 0,0 l/m 2,4 km/h (1 Bft) O 0,63 h 0,076 mm 0,5 UV-I 203 W/m 0,8 C 2,1 C 4,1 km/h (1 Bft) 96,89 %
29.12.2020 12:00 2,3 C 3,9 C 1,8 C 91 % 994,9 hPa 0,0 l/m 1,7 km/h (1 Bft) NW 0,93 h 0,077 mm 0,4 UV-I 215 W/m 1,0 C 2,3 C 3,4 km/h (1 Bft) 95,70 %
29.12.2020 13:00 3,3 C 3,9 C 2,5 C 87 % 995,3 hPa 0,0 l/m 3,0 km/h (1 Bft) SW 0,83 h 0,076 mm 0,5 UV-I 188 W/m 1,4 C 3,3 C 4,7 km/h (1 Bft) 97,55 %
29.12.2020 14:00 3,0 C 3,9 C 1,8 C 89 % 996,2 hPa 0,0 l/m 2,0 km/h (1 Bft) W-NW 0,13 h 0,076 mm 0,0 UV-I 99 W/m 1,3 C 3,0 C 3,6 km/h (1 Bft) 97,84 %
29.12.2020 15:00 1,8 C 3,9 C 0,5 C 92 % 997,1 hPa 0,0 l/m 2,2 km/h (1 Bft) S-SW 0,00 h 0,051 mm 0,0 UV-I 38 W/m 0,6 C 1,8 C 4,0 km/h (1 Bft) 98,01 %
29.12.2020 16:00 1,8 C 3,9 C 0,3 C 91 % 997,9 hPa 0,0 l/m 6,1 km/h (2 Bft) S-SW 0,03 h 0,025 mm 0,0 UV-I 6 W/m 0,6 C 1,3 C 9,1 km/h (2 Bft) 96,90 %
29.12.2020 17:00 2,0 C 3,9 C 0,6 C 90 % 998,2 hPa 0,0 l/m 5,7 km/h (1 Bft) S-SW 0,00 h 0,000 mm 0,0 UV-I 5 W/m 0,6 C 1,9 C 8,4 km/h (2 Bft) 95,95 %
29.12.2020 18:00 1,9 C 3,9 C 0,2 C 89 % 998,9 hPa 0,0 l/m 3,2 km/h (1 Bft) S 0,00 h 0,000 mm 0,0 UV-I 5 W/m 0,3 C 1,9 C 4,8 km/h (1 Bft) 96,21 %
29.12.2020 19:00 0,9 C 3,9 C -0,0 C 93 % 999,5 hPa 0,0 l/m 5,2 km/h (1 Bft) O-NO 0,00 h 0,000 mm 0,0 UV-I 5 W/m -0,0 C 0,6 C 7,5 km/h (2 Bft) 97,00 %
29.12.2020 20:00 0,6 C 3,9 C -0,7 C 95 % 1000,1 hPa 0,0 l/m 3,2 km/h (1 Bft) O-NO 0,00 h 0,000 mm 0,0 UV-I 5 W/m -0,2 C 0,6 C 4,9 km/h (1 Bft) 98,41 %
29.12.2020 21:00 0,3 C 3,9 C -0,6 C 95 % 1000,1 hPa 0,0 l/m 2,6 km/h (1 Bft) NO 0,00 h 0,000 mm 0,0 UV-I 5 W/m -0,4 C 0,3 C 4,2 km/h (1 Bft) 95,74 %
29.12.2020 22:00 0,0 C 3,9 C -0,9 C 96 % 1000,4 hPa 0,0 l/m 2,9 km/h (1 Bft) SW 0,00 h 0,000 mm 0,0 UV-I 5 W/m -0,5 C 0,0 C 4,3 km/h (1 Bft) 96,13 %
29.12.2020 23:00 0,3 C 3,9 C -0,6 C 96 % 1000,7 hPa 0,0 l/m 4,5 km/h (1 Bft) S-SW 0,00 h 0,000 mm 0,0 UV-I 5 W/m -0,3 C 0,2 C 6,8 km/h (2 Bft) 97,18 %
30.12.2020 00:00 0,3 C 3,9 C -0,3 C 96 % 1000,7 hPa 0,0 l/m 4,8 km/h (1 Bft) S-SW 0,00 h 0,000 mm 0,0 UV-I 5 W/m -0,3 C 0,2 C 7,2 km/h (2 Bft) 98,29 %
30.12.2020 01:00 0,4 C 3,9 C -0,3 C 95 % 1001,0 hPa 0,0 l/m 7,4 km/h (2 Bft) SW 0,00 h 0,000 mm 0,0 UV-I 5 W/m -0,3 C -0,7 C 10,5 km/h (2 Bft) 97,62 %
30.12.2020 02:00 0,4 C 3,9 C -1,1 C 94 % 1001,3 hPa 0,0 l/m 3,8 km/h (1 Bft) S-SW 0,00 h 0,000 mm 0,0 UV-I 5 W/m -0,4 C -0,0 C 6,2 km/h (2 Bft) 95,30 %
30.12.2020 03:00 -0,3 C 3,9 C -2,3 C 96 % 1001,5 hPa 0,0 l/m 1,8 km/h (1 Bft) S-SW 0,00 h 0,000 mm 0,0 UV-I 5 W/m -0,9 C -0,3 C 2,9 km/h (1 Bft) 98,84 %
30.12.2020 04:00 -0,5 C 3,9 C -2,5 C 96 % 1001,4 hPa 0,0 l/m 3,0 km/h (1 Bft) S-SW 0,00 h 0,000 mm 0,0 UV-I 5 W/m -1,0 C -0,5 C 4,2 km/h (1 Bft) 96,93 %
30.12.2020 05:00 -0,7 C 3,9 C -2,4 C 96 % 1001,5 hPa 0,0 l/m 2,8 km/h (1 Bft) S-SW 0,00 h 0,000 mm 0,0 UV-I 5 W/m -1,3 C -0,7 C 4,1 km/h (1 Bft) 97,74 %
30.12.2020 06:00 -0,0 C 3,9 C -0,8 C 94 % 1002,2 hPa 0,0 l/m 3,2 km/h (1 Bft) SW 0,00 h 0,000 mm 0,0 UV-I 5 W/m -0,8 C -0,0 C 4,7 km/h (1 Bft) 95,50 %
30.12.2020 07:00 0,2 C 3,9 C -0,6 C 94 % 1003,0 hPa 0,0 l/m 1,7 km/h (1 Bft) SW 0,00 h 0,000 mm 0,0 UV-I 6 W/m -0,6 C 0,2 C 2,9 km/h (1 Bft) 97,69 %
30.12.2020 08:00 0,1 C 3,9 C -0,4 C 95 % 1003,7 hPa 0,0 l/m 3,7 km/h (1 Bft) SW 0,00 h 0,000 mm 0,0 UV-I 17 W/m -0,6 C 0,1 C 5,3 km/h (1 Bft) 98,06 %
30.12.2020 09:00 0,9 C 3,9 C 0,3 C 94 % 1004,1 hPa 0,0 l/m 4,9 km/h (1 Bft) SW 0,00 h 0,000 mm 0,0 UV-I 47 W/m 0,0 C 0,9 C 6,9 km/h (2 Bft) 96,01 %
30.12.2020 10:00 1,6 C 3,9 C 1,8 C 92 % 1004,4 hPa 0,0 l/m 3,9 km/h (1 Bft) W-SW 0,00 h 0,025 mm 0,0 UV-I 81 W/m 0,4 C 1,6 C 6,0 km/h (2 Bft) 96,23 %
30.12.2020 11:00 2,4 C 3,9 C 4,0 C 90 % 1004,4 hPa 0,0 l/m 3,5 km/h (1 Bft) W-SW 0,00 h 0,026 mm 0,0 UV-I 140 W/m 0,9 C 2,4 C 5,5 km/h (1 Bft) 96,36 %
30.12.2020 12:00 3,0 C 3,9 C 5,1 C 88 % 1004,4 hPa 0,0 l/m 3,3 km/h (1 Bft) W-SW 0,00 h 0,051 mm 0,0 UV-I 137 W/m 1,3 C 3,0 C 5,3 km/h (1 Bft) 98,02 %
30.12.2020 13:00 3,5 C 3,9 C 5,1 C 87 % 1004,4 hPa 0,0 l/m 1,3 km/h (1 Bft) SW 0,00 h 0,050 mm 0,0 UV-I 108 W/m 1,5 C 3,5 C 2,5 km/h (1 Bft) 96,88 %
30.12.2020 14:00 3,5 C 3,9 C 4,2 C 87 % 1004,8 hPa 0,0 l/m 3,6 km/h (1 Bft) W 0,00 h 0,051 mm 0,0 UV-I 73 W/m 1,5 C 3,5 C 5,7 km/h (1 Bft) 98,23 %
30.12.2020 15:00 3,0 C 3,9 C 2,7 C 89 % 1005,4 hPa 0,0 l/m 5,1 km/h (1 Bft) S-SW 0,00 h 0,026 mm 0,0 UV-I 35 W/m 1,3 C 2,9 C 7,3 km/h (2 Bft) 96,43 %
30.12.2020 16:00 2,4 C 3,9 C 0,9 C 91 % 1006,1 hPa 0,0 l/m 1,6 km/h (1 Bft) SW 0,03 h 0,025 mm 0,0 UV-I 8 W/m 1,0 C 2,4 C 2,6 km/h (1 Bft) 96,19 %
30.12.2020 17:00 1,3 C 3,9 C 0,2 C 94 % 1006,7 hPa 0,0 l/m 2,8 km/h (1 Bft) S-SW 0,00 h 0,000 mm 0,0 UV-I 5 W/m 0,3 C 1,3 C 3,8 km/h (1 Bft) 98,17 %
30.12.2020 18:00 1,0 C 3,9 C 0,1 C 95 % 1007,2 hPa 0,0 l/m 3,2 km/h (1 Bft) S-SW 0,00 h 0,000 mm 0,0 UV-I 5 W/m 0,3 C 1,0 C 4,3 km/h (1 Bft) 98,09 %
30.12.2020 19:00 1,2 C 3,9 C 0,2 C 95 % 1007,7 hPa 0,0 l/m 3,9 km/h (1 Bft) S-SW 0,00 h 0,000 mm 0,0 UV-I 5 W/m 0,4 C 1,2 C 5,2 km/h (1 Bft) 97,08 %
30.12.2020 20:00 1,5 C 3,9 C 0,7 C 94 % 1008,1 hPa 0,0 l/m 4,0 km/h (1 Bft) S-SW 0,00 h 0,000 mm 0,0 UV-I 5 W/m 0,6 C 1,5 C 5,4 km/h (1 Bft) 95,25 %
30.12.2020 21:00 1,7 C 3,9 C 1,1 C 93 % 1008,5 hPa 0,0 l/m 4,1 km/h (1 Bft) S-SW 0,00 h 0,000 mm 0,0 UV-I 5 W/m 0,7 C 1,7 C 6,0 km/h (2 Bft) 97,08 %
30.12.2020 22:00 1,5 C 3,9 C 0,2 C 93 % 1008,7 hPa 0,0 l/m 3,9 km/h (1 Bft) S-SW 0,00 h 0,000 mm 0,0 UV-I 5 W/m 0,5 C 1,5 C 5,7 km/h (1 Bft) 97,99 %
30.12.2020 23:00 0,9 C 3,9 C -0,6 C 94 % 1009,0 hPa 0,0 l/m 4,3 km/h (1 Bft) S-SW 0,00 h 0,000 mm 0,0 UV-I 5 W/m 0,1 C 0,9 C 5,7 km/h (1 Bft) 96,97 %
31.12.2020 00:00 0,7 C 3,9 C -1,1 C 94 % 1009,2 hPa 0,0 l/m 3,3 km/h (1 Bft) SW 0,00 h 0,000 mm 0,0 UV-I 5 W/m -0,1 C 0,7 C 5,0 km/h (1 Bft) 94,43 %
31.12.2020 01:00 1,0 C 3,9 C -0,1 C 94 % 1009,4 hPa 0,0 l/m 4,7 km/h (1 Bft) S-SW 0,00 h 0,000 mm 0,0 UV-I 5 W/m 0,1 C 1,0 C 6,5 km/h (2 Bft) 98,88 %
31.12.2020 02:00 0,3 C 3,9 C -1,5 C 94 % 1009,3 hPa 0,0 l/m 3,6 km/h (1 Bft) S-SW 0,00 h 0,000 mm 0,0 UV-I 5 W/m -0,5 C 0,3 C 5,0 km/h (1 Bft) 97,59 %
31.12.2020 03:00 -0,7 C 3,9 C -4,4 C 96 % 1009,5 hPa 0,0 l/m 2,5 km/h (1 Bft) S-SW 0,00 h 0,000 mm 0,0 UV-I 5 W/m -1,3 C -0,7 C 3,5 km/h (1 Bft) 96,83 %
31.12.2020 04:00 -0,7 C 3,9 C -2,8 C 96 % 1009,5 hPa 0,0 l/m 2,6 km/h (1 Bft) S 0,00 h 0,000 mm 0,0 UV-I 5 W/m -1,2 C -0,7 C 3,9 km/h (1 Bft) 95,95 %
31.12.2020 05:00 -0,5 C 3,9 C -1,3 C 97 % 1009,4 hPa 0,0 l/m 1,7 km/h (1 Bft) O-SO 0,00 h 0,000 mm 0,0 UV-I 5 W/m -0,9 C -0,5 C 2,7 km/h (1 Bft) 96,59 %
31.12.2020 06:00 -0,6 C 3,9 C -2,3 C 96 % 1009,6 hPa 0,0 l/m 2,6 km/h (1 Bft) O-NO 0,00 h 0,000 mm 0,0 UV-I 5 W/m -1,1 C -0,6 C 3,7 km/h (1 Bft) 97,66 %
31.12.2020 07:00 -1,3 C 3,9 C -3,9 C 97 % 1009,7 hPa 0,0 l/m 1,3 km/h (1 Bft) O-NO 0,00 h 0,000 mm 0,0 UV-I 9 W/m -1,7 C -1,3 C 2,3 km/h (1 Bft) 97,31 %
31.12.2020 08:00 -1,7 C 3,9 C -4,6 C 97 % 1009,9 hPa 0,0 l/m 1,2 km/h (1 Bft) S 0,67 h 0,000 mm 0,0 UV-I 52 W/m -2,1 C -1,7 C 2,0 km/h (1 Bft) 96,45 %
31.12.2020 09:00 -0,6 C 3,9 C -2,4 C 97 % 1009,7 hPa 0,0 l/m 2,5 km/h (1 Bft) O-NO 0,87 h 0,025 mm 0,0 UV-I 126 W/m -1,0 C -0,6 C 3,5 km/h (1 Bft) 95,87 %
31.12.2020 10:00 -0,3 C 3,9 C 0,1 C 96 % 1009,4 hPa 0,0 l/m 3,5 km/h (1 Bft) NO 0,93 h 0,051 mm 0,0 UV-I 192 W/m -0,8 C -0,3 C 4,7 km/h (1 Bft) 96,03 %
31.12.2020 11:00 -0,2 C 3,9 C 2,0 C 97 % 1008,5 hPa 0,0 l/m 5,1 km/h (1 Bft) NO 0,87 h 0,051 mm 0,5 UV-I 233 W/m -0,6 C -0,3 C 6,9 km/h (2 Bft) 96,87 %
31.12.2020 12:00 2,1 C 3,9 C 2,8 C 95 % 1007,5 hPa 0,0 l/m 5,0 km/h (1 Bft) O-NO 1,02 h 0,076 mm 0,6 UV-I 273 W/m 1,4 C 2,1 C 7,5 km/h (2 Bft) 97,55 %
31.12.2020 13:00 3,1 C 3,9 C 3,0 C 91 % 1006,7 hPa 0,0 l/m 5,5 km/h (1 Bft) NO 0,98 h 0,102 mm 0,5 UV-I 232 W/m 1,7 C 3,0 C 7,6 km/h (2 Bft) 96,51 %
31.12.2020 14:00 3,7 C 3,9 C 2,6 C 86 % 1006,4 hPa 0,0 l/m 6,5 km/h (2 Bft) NO 1,00 h 0,101 mm 0,0 UV-I 157 W/m 1,6 C 3,2 C 9,1 km/h (2 Bft) 97,70 %
31.12.2020 15:00 3,3 C 3,9 C 0,1 C 84 % 1006,3 hPa 0,0 l/m 4,6 km/h (1 Bft) O-NO 0,97 h 0,077 mm 0,0 UV-I 69 W/m 0,9 C 3,2 C 6,9 km/h (2 Bft) 97,02 %
31.12.2020 16:00 1,0 C 3,9 C -2,9 C 90 % 1006,4 hPa 0,0 l/m 2,8 km/h (1 Bft) O-SO 0,13 h 0,025 mm 0,0 UV-I 14 W/m -0,4 C 1,0 C 4,3 km/h (1 Bft) 96,61 %
31.12.2020 17:00 -0,8 C 3,9 C -4,3 C 95 % 1006,4 hPa 0,0 l/m 3,2 km/h (1 Bft) SW 0,00 h 0,000 mm 0,0 UV-I 5 W/m -1,6 C -0,8 C 4,2 km/h (1 Bft) 96,67 %
31.12.2020 18:00 -1,6 C 3,9 C -5,6 C 95 % 1006,3 hPa 0,0 l/m 3,3 km/h (1 Bft) SW 0,00 h 0,000 mm 0,0 UV-I 5 W/m -2,2 C -1,6 C 4,2 km/h (1 Bft) 96,34 %
31.12.2020 19:00 -1,7 C 3,9 C -6,1 C 96 % 1006,3 hPa 0,0 l/m 1,0 km/h (0 Bft) SW 0,00 h 0,000 mm 0,0 UV-I 0 W/m -2,3 C -1,7 C 1,4 km/h (1 Bft) 97,94 %
31.12.2020 20:00 -2,3 C 3,9 C -6,3 C 96 % 1006,2 hPa 0,0 l/m 1,2 km/h (1 Bft) SW 0,00 h 0,000 mm 0,0 UV-I 5 W/m -2,8 C -2,3 C 1,8 km/h (1 Bft) 95,37 %
31.12.2020 21:00 -2,6 C 3,9 C -6,5 C 96 % 1006,3 hPa 0,0 l/m 0,8 km/h (0 Bft) SW 0,00 h 0,000 mm 0,0 UV-I 0 W/m -3,1 C -2,6 C 1,7 km/h (1 Bft) 96,15 %
31.12.2020 22:00 -2,9 C 3,9 C -6,8 C 96 % 1006,4 hPa 0,0 l/m 1,3 km/h (1 Bft) W-SW 0,00 h 0,000 mm 0,0 UV-I 0 W/m -3,4 C -2,9 C 2,0 km/h (1 Bft) 98,85 %
31.12.2020 23:00 -3,1 C 3,9 C -6,9 C 96 % 1006,5 hPa 0,0 l/m 1,5 km/h (1 Bft) NW 0,00 h 0,000 mm 0,0 UV-I 0 W/m -3,6 C -3,1 C 2,8 km/h (1 Bft) 96,00 %
01.01.2021 00:00 -3,2 C 3,9 C -6,6 C 96 % 1006,5 hPa 0,0 l/m 2,6 km/h (1 Bft) SW 0,00 h 0,000 mm 0,0 UV-I 0 W/m -3,7 C -3,2 C 3,7 km/h (1 Bft) 93,10 %
01.01.2021 01:00 -3,5 C 3,9 C -5,5 C 96 % 1006,9 hPa 0,0 l/m 4,8 km/h (1 Bft) SW 0,00 h 0,000 mm 0,0 UV-I 0 W/m -4,1 C -3,7 C 6,7 km/h (2 Bft) 97,85 %
01.01.2021 02:00 -3,9 C 3,9 C -4,8 C 96 % 1007,3 hPa 0,0 l/m 3,8 km/h (1 Bft) S-SW 0,00 h 0,000 mm 0,0 UV-I 5 W/m -4,4 C -3,9 C 5,6 km/h (1 Bft) 95,13 %
01.01.2021 03:00 -4,4 C 3,9 C -7,5 C 96 % 1007,2 hPa 0,0 l/m 1,8 km/h (1 Bft) S 0,00 h 0,000 mm 0,0 UV-I 0 W/m -5,0 C -4,4 C 2,7 km/h (1 Bft) 97,69 %
01.01.2021 04:00 -5,1 C 3,7 C -8,6 C 95 % 1007,1 hPa 0,0 l/m 0,9 km/h (0 Bft) S-SO 0,00 h 0,000 mm 0,0 UV-I 0 W/m -5,7 C -5,1 C 1,5 km/h (1 Bft) 96,59 %
01.01.2021 05:00 -4,9 C 3,8 C -8,4 C 96 % 1006,9 hPa 0,0 l/m 1,6 km/h (1 Bft) O-NO 0,00 h 0,000 mm 0,0 UV-I 0 W/m -5,5 C -4,9 C 2,2 km/h (1 Bft) 95,56 %
01.01.2021 06:00 -5,3 C 3,7 C -8,3 C 95 % 1006,9 hPa 0,0 l/m 0,7 km/h (0 Bft) O-NO 0,00 h 0,000 mm 0,0 UV-I 0 W/m -6,0 C -5,3 C 1,2 km/h (1 Bft) 98,27 %
01.01.2021 07:00 -4,7 C 3,6 C -5,8 C 96 % 1007,2 hPa 0,0 l/m 1,5 km/h (1 Bft) O-NO 0,00 h 0,000 mm 0,0 UV-I 11 W/m -5,2 C -4,7 C 2,7 km/h (1 Bft) 95,56 %
01.01.2021 08:00 -4,8 C 3,7 C -5,6 C 96 % 1007,6 hPa 0,0 l/m 0,8 km/h (0 Bft) N-NO 0,47 h 0,000 mm 0,0 UV-I 37 W/m -5,4 C -4,8 C 1,7 km/h (1 Bft) 98,51 %
01.01.2021 09:00 -3,8 C 3,6 C -2,9 C 96 % 1008,1 hPa 0,0 l/m 0,6 km/h (0 Bft) NW 0,00 h 0,000 mm 0,0 UV-I 55 W/m -4,4 C -3,8 C 1,4 km/h (1 Bft) 95,96 %
01.01.2021 10:00 -3,1 C 3,7 C -1,6 C 97 % 1008,6 hPa 0,0 l/m 0,8 km/h (0 Bft) N-NO 0,00 h 0,025 mm 0,0 UV-I 82 W/m -3,6 C -3,1 C 1,7 km/h (1 Bft) 95,76 %
01.01.2021 11:00 -2,5 C 3,7 C 0,0 C 97 % 1008,5 hPa 0,2 l/m 1,1 km/h (1 Bft) SO 0,07 h 0,026 mm 0,0 UV-I 138 W/m -2,9 C -2,5 C 2,3 km/h (1 Bft) 96,26 %
01.01.2021 12:00 -2,3 C 3,9 C 0,3 C 97 % 1008,5 hPa 0,0 l/m 1,3 km/h (1 Bft) O-NO 0,00 h 0,051 mm 0,0 UV-I 102 W/m -2,7 C -2,3 C 2,7 km/h (1 Bft) 98,87 %
01.01.2021 13:00 -2,1 C 3,9 C 0,5 C 97 % 1008,7 hPa 0,0 l/m 1,2 km/h (1 Bft) NO 0,00 h 0,025 mm 0,0 UV-I 94 W/m -2,5 C -2,1 C 3,0 km/h (1 Bft) 97,11 %
01.01.2021 14:00 -2,2 C 3,9 C -0,3 C 97 % 1008,9 hPa 0,0 l/m 3,2 km/h (1 Bft) O-SO 0,00 h 0,025 mm 0,0 UV-I 79 W/m -2,6 C -2,2 C 5,3 km/h (1 Bft) 97,46 %
01.01.2021 15:00 -2,5 C 3,9 C -1,5 C 97 % 1009,0 hPa 0,0 l/m 5,9 km/h (2 Bft) O-NO 0,00 h 0,026 mm 0,0 UV-I 29 W/m -2,9 C -2,9 C 9,1 km/h (2 Bft) 94,94 %
01.01.2021 16:00 -2,8 C 3,9 C -2,2 C 97 % 1009,2 hPa 0,0 l/m 6,7 km/h (2 Bft) O 0,07 h 0,000 mm 0,0 UV-I 10 W/m -3,2 C -3,6 C 10,5 km/h (2 Bft) 97,94 %
01.01.2021 17:00 -2,7 C 3,9 C -2,2 C 97 % 1009,6 hPa 0,0 l/m 5,8 km/h (2 Bft) O-NO 0,00 h 0,000 mm 0,0 UV-I 0 W/m -3,1 C -3,1 C 8,9 km/h (2 Bft) 96,49 %
01.01.2021 18:00 -3,2 C 3,9 C -2,8 C 97 % 1009,9 hPa 0,0 l/m 5,9 km/h (2 Bft) O 0,00 h 0,000 mm 0,0 UV-I 0 W/m -3,6 C -3,5 C 9,2 km/h (2 Bft) 96,77 %
01.01.2021 19:00 -3,4 C 3,9 C -3,1 C 97 % 1010,3 hPa 0,0 l/m 6,7 km/h (2 Bft) O-NO 0,00 h 0,000 mm 0,0 UV-I 5 W/m -3,8 C -4,2 C 10,1 km/h (2 Bft) 96,28 %
01.01.2021 20:00 -3,3 C 3,9 C -2,9 C 97 % 1010,8 hPa 0,0 l/m 4,9 km/h (1 Bft) O-NO 0,00 h 0,000 mm 0,0 UV-I 0 W/m -3,7 C -3,4 C 7,9 km/h (2 Bft) 97,96 %
01.01.2021 21:00 -3,1 C 3,9 C -2,8 C 97 % 1011,2 hPa 0,0 l/m 4,5 km/h (1 Bft) O-NO 0,00 h 0,000 mm 0,0 UV-I 0 W/m -3,5 C -3,1 C 6,8 km/h (2 Bft) 97,69 %
01.01.2021 22:00 -2,7 C 3,9 C -2,5 C 97 % 1011,4 hPa 0,0 l/m 3,5 km/h (1 Bft) O 0,00 h 0,000 mm 0,0 UV-I 0 W/m -3,2 C -2,7 C 5,7 km/h (1 Bft) 96,65 %
01.01.2021 23:00 -2,7 C 3,9 C -2,2 C 97 % 1011,5 hPa 0,0 l/m 2,6 km/h (1 Bft) O-NO 0,00 h 0,000 mm 0,0 UV-I 0 W/m -3,1 C -2,7 C 4,4 km/h (1 Bft) 96,23 %
02.01.2021 00:00 -2,4 C 3,9 C -2,2 C 97 % 1011,7 hPa 0,0 l/m 1,7 km/h (1 Bft) O 0,00 h 0,000 mm 0,0 UV-I 5 W/m -2,8 C -2,4 C 3,1 km/h (1 Bft) 95,25 %
02.01.2021 01:00 -2,3 C 3,9 C -2,2 C 97 % 1011,6 hPa 0,0 l/m 2,2 km/h (1 Bft) O 0,00 h 0,000 mm 0,0 UV-I 0 W/m -2,7 C -2,3 C 3,8 km/h (1 Bft) 97,78 %
02.01.2021 02:00 -2,3 C 3,9 C -2,2 C 97 % 1012,0 hPa 0,0 l/m 1,2 km/h (1 Bft) O-SO 0,00 h 0,000 mm 0,0 UV-I 5 W/m -2,7 C -2,3 C 2,2 km/h (1 Bft) 95,89 %
02.01.2021 03:00 -2,2 C 3,9 C -1,9 C 97 % 1012,0 hPa 0,0 l/m 1,1 km/h (1 Bft) SO 0,00 h 0,000 mm 0,0 UV-I 5 W/m -2,6 C -2,2 C 2,0 km/h (1 Bft) 97,14 %
02.01.2021 04:00 -2,2 C 3,8 C -2,0 C 97 % 1012,1 hPa 0,0 l/m 1,4 km/h (1 Bft) NO 0,00 h 0,000 mm 0,0 UV-I 0 W/m -2,6 C -2,2 C 2,8 km/h (1 Bft) 97,36 %
02.01.2021 05:00 -2,3 C 3,6 C -2,2 C 97 % 1012,3 hPa 0,0 l/m 1,3 km/h (1 Bft) S-SO 0,00 h 0,000 mm 0,0 UV-I 0 W/m -2,7 C -2,3 C 2,9 km/h (1 Bft) 98,10 %
02.01.2021 06:00 -2,2 C 3,9 C -2,2 C 97 % 1012,4 hPa 0,0 l/m 1,4 km/h (1 Bft) O-NO 0,00 h 0,000 mm 0,0 UV-I 0 W/m -2,7 C -2,2 C 2,8 km/h (1 Bft) 94,97 %
02.01.2021 07:00 -2,3 C 3,9 C -2,2 C 97 % 1012,7 hPa 0,0 l/m 0,9 km/h (0 Bft) O-NO 0,00 h 0,000 mm 0,0 UV-I 8 W/m -2,7 C -2,3 C 2,0 km/h (1 Bft) 97,65 %
02.01.2021 08:00 -2,2 C 3,9 C -1,9 C 97 % 1012,7 hPa 0,0 l/m 2,8 km/h (1 Bft) O 0,00 h 0,000 mm 0,0 UV-I 11 W/m -2,7 C -2,2 C 4,4 km/h (1 Bft) 96,54 %
02.01.2021 09:00 -2,1 C 3,9 C -1,7 C 97 % 1012,9 hPa 0,0 l/m 4,0 km/h (1 Bft) O 0,00 h 0,000 mm 0,0 UV-I 22 W/m -2,6 C -2,1 C 5,7 km/h (1 Bft) 97,73 %
02.01.2021 10:00 -2,1 C 3,4 C -1,3 C 97 % 1013,0 hPa 0,0 l/m 4,3 km/h (1 Bft) O-NO 0,00 h 0,000 mm 0,0 UV-I 38 W/m -2,5 C -2,1 C 6,4 km/h (2 Bft) 95,54 %
02.01.2021 11:00 -2,0 C 3,3 C -1,0 C 97 % 1012,8 hPa 0,0 l/m 4,5 km/h (1 Bft) NO 0,00 h 0,025 mm 0,0 UV-I 47 W/m -2,4 C -2,0 C 6,3 km/h (2 Bft) 98,39 %
02.01.2021 12:00 -1,9 C 3,4 C -0,6 C 96 % 1012,1 hPa 0,0 l/m 4,5 km/h (1 Bft) O-NO 0,53 h 0,026 mm 0,0 UV-I 208 W/m -2,4 C -1,9 C 6,5 km/h (2 Bft) 96,22 %
02.01.2021 13:00 -1,6 C 3,4 C -0,6 C 95 % 1011,3 hPa 0,0 l/m 5,2 km/h (1 Bft) O-NO 0,00 h 0,152 mm 0,0 UV-I 55 W/m -2,3 C -1,7 C 7,4 km/h (2 Bft) 97,38 %
02.01.2021 14:00 -1,4 C 3,7 C -0,9 C 95 % 1010,9 hPa 0,0 l/m 4,3 km/h (1 Bft) O-NO 0,37 h 0,026 mm 0,0 UV-I 127 W/m -2,1 C -1,4 C 6,5 km/h (2 Bft) 95,22 %
02.01.2021 15:00 -1,3 C 3,4 C -1,1 C 97 % 1010,5 hPa 0,0 l/m 5,6 km/h (1 Bft) O-NO 0,00 h 0,101 mm 0,0 UV-I 23 W/m -1,8 C -1,5 C 8,2 km/h (2 Bft) 98,97 %
02.01.2021 16:00 -1,2 C 3,4 C -1,1 C 97 % 1010,3 hPa 0,0 l/m 5,1 km/h (1 Bft) O-NO 0,13 h 0,000 mm 0,0 UV-I 18 W/m -1,6 C -1,2 C 7,7 km/h (2 Bft) 96,95 %
02.01.2021 17:00 -0,9 C 3,3 C -1,1 C 98 % 1010,0 hPa 0,0 l/m 4,0 km/h (1 Bft) O-NO 0,00 h 0,000 mm 0,0 UV-I 5 W/m -1,2 C -0,9 C 6,3 km/h (2 Bft) 97,65 %
02.01.2021 18:00 -0,7 C 3,7 C -0,6 C 98 % 1009,5 hPa 0,0 l/m 4,6 km/h (1 Bft) NO 0,00 h 0,026 mm 0,0 UV-I 5 W/m -1,0 C -0,8 C 6,9 km/h (2 Bft) 94,49 %
02.01.2021 19:00 -0,5 C 3,4 C -0,6 C 98 % 1009,4 hPa 0,0 l/m 3,3 km/h (1 Bft) NO 0,00 h 0,000 mm 0,0 UV-I 0 W/m -0,8 C -0,5 C 4,9 km/h (1 Bft) 98,46 %
02.01.2021 20:00 -0,3 C 3,3 C -0,6 C 97 % 1008,8 hPa 0,0 l/m 1,3 km/h (1 Bft) NO 0,00 h 0,000 mm 0,0 UV-I 0 W/m -0,7 C -0,3 C 2,6 km/h (1 Bft) 97,21 %
02.01.2021 21:00 -0,3 C 3,3 C -0,6 C 98 % 1008,3 hPa 0,0 l/m 0,4 km/h (0 Bft) O-NO 0,00 h 0,000 mm 0,0 UV-I 0 W/m -0,6 C -0,3 C 1,0 km/h (0 Bft) 98,25 %
02.01.2021 22:00 -0,3 C 3,4 C -0,4 C 98 % 1008,1 hPa 0,0 l/m 2,5 km/h (1 Bft) SW 0,00 h 0,000 mm 0,0 UV-I 0 W/m -0,6 C -0,3 C 4,2 km/h (1 Bft) 94,42 %
02.01.2021 23:00 -0,4 C 3,3 C -0,6 C 98 % 1007,8 hPa 0,0 l/m 1,5 km/h (1 Bft) SW 0,00 h 0,000 mm 0,0 UV-I 0 W/m -0,7 C -0,4 C 2,6 km/h (1 Bft) 97,88 %
03.01.2021 00:00 -0,7 C 3,4 C -0,6 C 98 % 1007,5 hPa 0,0 l/m 4,1 km/h (1 Bft) W-SW 0,00 h 0,000 mm 0,0 UV-I 0 W/m -1,0 C -0,7 C 6,6 km/h (2 Bft) 92,86 %
03.01.2021 01:00 -0,7 C 3,9 C -0,6 C 98 % 1007,5 hPa 0,0 l/m 5,7 km/h (1 Bft) W-SW 0,00 h 0,000 mm 0,0 UV-I 0 W/m -1,0 C -0,8 C 8,8 km/h (2 Bft) 98,81 %
03.01.2021 02:00 -0,9 C 3,8 C -0,8 C 98 % 1008,0 hPa 0,0 l/m 4,1 km/h (1 Bft) W 0,00 h 0,000 mm 0,0 UV-I 0 W/m -1,1 C -0,9 C 6,6 km/h (2 Bft) 94,86 %
03.01.2021 03:00 -1,0 C 3,9 C -1,1 C 98 % 1008,1 hPa 0,0 l/m 4,5 km/h (1 Bft) W-SW 0,00 h 0,000 mm 0,0 UV-I 0 W/m -1,3 C -1,1 C 7,9 km/h (2 Bft) 97,52 %
03.01.2021 04:00 -1,0 C 3,5 C -1,1 C 98 % 1008,2 hPa 0,0 l/m 4,2 km/h (1 Bft) W 0,00 h 0,000 mm 0,0 UV-I 0 W/m -1,3 C -1,0 C 7,1 km/h (2 Bft) 97,26 %
03.01.2021 05:00 -1,0 C 3,3 C -1,1 C 98 % 1008,2 hPa 0,0 l/m 4,5 km/h (1 Bft) W 0,00 h 0,000 mm 0,0 UV-I 0 W/m -1,3 C -1,0 C 7,5 km/h (2 Bft) 98,37 %
03.01.2021 06:00 -1,0 C 3,3 C -1,0 C 98 % 1008,4 hPa 0,0 l/m 2,6 km/h (1 Bft) W 0,00 h 0,000 mm 0,0 UV-I 0 W/m -1,2 C -1,0 C 4,8 km/h (1 Bft) 96,10 %
03.01.2021 07:00 -1,0 C 3,3 C -0,9 C 98 % 1008,6 hPa 0,0 l/m 1,9 km/h (1 Bft) W 0,00 h 0,000 mm 0,0 UV-I 19 W/m -1,3 C -1,0 C 3,6 km/h (1 Bft) 97,42 %
03.01.2021 08:00 -1,0 C 3,3 C -0,9 C 98 % 1009,0 hPa 0,0 l/m 2,5 km/h (1 Bft) W 0,13 h 0,000 mm 0,0 UV-I 25 W/m -1,3 C -1,0 C 4,2 km/h (1 Bft) 97,56 %
03.01.2021 09:00 -0,8 C 3,3 C -0,5 C 98 % 1009,6 hPa 0,0 l/m 2,5 km/h (1 Bft) W 0,00 h 0,000 mm 0,0 UV-I 44 W/m -1,1 C -0,8 C 4,4 km/h (1 Bft) 97,39 %
03.01.2021 10:00 -0,5 C 3,3 C 0,1 C 97 % 1010,4 hPa 0,0 l/m 3,1 km/h (1 Bft) W-SW 0,00 h 0,025 mm 0,0 UV-I 75 W/m -0,9 C -0,5 C 5,0 km/h (1 Bft) 96,05 %
03.01.2021 11:00 -0,1 C 3,3 C 1,5 C 95 % 1010,5 hPa 0,0 l/m 4,1 km/h (1 Bft) W 0,00 h 0,026 mm 0,0 UV-I 115 W/m -0,7 C -0,1 C 6,7 km/h (2 Bft) 96,69 %
03.01.2021 12:00 0,2 C 3,3 C 1,9 C 93 % 1010,3 hPa 0,0 l/m 4,0 km/h (1 Bft) W 0,00 h 0,051 mm 0,0 UV-I 108 W/m -0,8 C 0,2 C 7,1 km/h (2 Bft) 98,00 %
03.01.2021 13:00 0,4 C 3,3 C 2,2 C 90 % 1010,4 hPa 0,0 l/m 3,3 km/h (1 Bft) W 0,00 h 0,050 mm 0,0 UV-I 99 W/m -1,0 C 0,4 C 5,7 km/h (1 Bft) 97,46 %
03.01.2021 14:00 0,4 C 3,3 C 1,2 C 89 % 1010,6 hPa 0,0 l/m 3,3 km/h (1 Bft) W 0,00 h 0,026 mm 0,0 UV-I 55 W/m -1,2 C 0,4 C 5,5 km/h (1 Bft) 96,10 %
03.01.2021 15:00 0,4 C 3,4 C 0,7 C 89 % 1010,9 hPa 0,0 l/m 1,0 km/h (0 Bft) W-NW 0,00 h 0,025 mm 0,0 UV-I 39 W/m -1,2 C 0,4 C 2,3 km/h (1 Bft) 96,81 %
03.01.2021 16:00 0,1 C 3,9 C -0,4 C 89 % 1011,3 hPa 0,0 l/m 0,0 km/h (0 Bft) N 0,20 h 0,026 mm 0,0 UV-I 13 W/m -1,4 C 0,1 C 0,2 km/h (0 Bft) 97,96 %
03.01.2021 17:00 -0,2 C 3,9 C -0,6 C 92 % 1011,5 hPa 0,0 l/m 0,0 km/h (0 Bft) N 0,00 h 0,000 mm 0,0 UV-I 5 W/m -1,4 C -0,2 C 0,0 km/h (0 Bft) 97,44 %
03.01.2021 18:00 -0,3 C 3,9 C -0,6 C 93 % 1011,9 hPa 0,0 l/m 0,0 km/h (0 Bft) N 0,00 h 0,000 mm 0,0 UV-I 0 W/m -1,2 C -0,3 C 0,0 km/h (0 Bft) 96,11 %
03.01.2021 19:00 -0,3 C 3,9 C -0,6 C 92 % 1012,1 hPa 0,0 l/m 0,0 km/h (0 Bft) N 0,00 h 0,000 mm 0,0 UV-I 0 W/m -1,4 C -0,3 C 0,0 km/h (0 Bft) 97,23 %
03.01.2021 20:00 -0,3 C 3,7 C -0,6 C 93 % 1012,4 hPa 0,0 l/m 0,0 km/h (0 Bft) N 0,00 h 0,000 mm 0,0 UV-I 0 W/m -1,3 C -0,3 C 0,0 km/h (0 Bft) 98,33 %
03.01.2021 21:00 -0,4 C 3,3 C -0,6 C 94 % 1012,7 hPa 0,0 l/m 0,3 km/h (0 Bft) S 0,00 h 0,000 mm 0,0 UV-I 0 W/m -1,3 C -0,4 C 0,9 km/h (0 Bft) 95,63 %
03.01.2021 22:00 -0,5 C 3,5 C -0,6 C 94 % 1013,0 hPa 0,0 l/m 0,0 km/h (0 Bft) N 0,00 h 0,000 mm 0,0 UV-I 0 W/m -1,4 C -0,5 C 0,2 km/h (0 Bft) 96,08 %
03.01.2021 23:00 -0,4 C 3,9 C -0,6 C 93 % 1012,9 hPa 0,0 l/m 0,4 km/h (0 Bft) NO 0,00 h 0,000 mm 0,0 UV-I 0 W/m -1,4 C -0,4 C 0,9 km/h (0 Bft) 96,78 %
Min-Datum _ 01.01.21 01.01.21 01.01.21 28.12.20 28.12.20 - 28.12.20 - - - - - 01.01.21 28.12.20 28.12.20 01.01.21
_ Min-Zeit 06:24 04:00 06:04 15:22 16:10 - 06:08 - - - - - 06:24 12:32 06:10 00:02
Minimum _ -5,6 C 3,3 C -9,4 C 75 % 979,6 hPa - 0,0 km/h (0 Bft) - - - - - -6,3 C -8,1 C 0,0 km/h (0 Bft) 4,76 %
Max-Datum _ 28.12.20 28.12.20 30.12.20 31.12.20 02.01.21 28.12.20 28.12.20 - 31.12.20 02.01.21 31.12.20 02.01.21 31.12.20 31.12.20 28.12.20 28.12.20
_ Max-Zeit 17:20 00:00 12:08 11:52 10:22 20:58 19:08 - 12:59 13:00 11:42 12:24 13:12 14:16 19:10 00:06
Maximum _ 3,9 C 3,9 C 5,6 C 98 % 1013,2 hPa 0,2 l/m 23,9 km/h
W-SW (4 Bft)
- 0,05 h 0,152 mm 0,6 UV-I 340 W/m 1,9 C 3,9 C 40,2 km/h
W-SW (6 Bft)
100,00 %
Durchschnitt _ -0,5 C 3,8 C -1,2 C 94 % 1002,9 hPa #0,8 l/m 4,1 km/h (1 Bft) O-NO #17:22 h #2,566 mm 0,5 UV-I 48 W/m -1,4 C -1,1 C 6,3 km/h (2 Bft) 96,89 %